CW2157 Weather Reports


time (UTC)temp
C
wind
direction
speed
KPH
gust
KPH
rain 1hr
cm
rain 24hr
cm
rain mn
cm
humidity
%
barometer
mb
20260831181704 30 352 3.2 4.8 0.00 0.00 0.00 73 1017.0
20260831181204 30 347 4.8 14.5 0.00 0.00 0.00 75 1017.0
20260831180205 30 334 3.2 12.9 0.00 0.00 0.00 72 1017.1
20260831175704 30 16 3.2 16.1 0.00 0.00 0.00 74 1017.2
20260831175204 30 69 9.7 16.1 0.00 0.00 0.00 73 1017.2
20260831174704 30 56 3.2 8.0 0.00 0.00 0.00 73 1017.2
20260831173705 30 28 4.8 9.7 0.00 0.00 0.00 75 1017.2
20260831173204 30 354 3.2 9.7 0.00 0.00 0.00 76 1017.2
20260831172704 30 7 3.2 9.7 0.00 0.00 0.00 74 1017.3
20260831172204 30 49 3.2 9.7 0.00 0.00 0.00 76 1017.3
20260831171205 30 32 4.8 8.0 0.00 0.00 0.00 77 1017.3
20260831170704 30 304 3.2 4.8 0.00 0.00 0.00 73 1017.4
20260831170204 30 358 4.8 9.7 0.00 0.00 0.00 73 1017.5
20260831165704 30 21 6.4 12.9 0.00 0.00 0.00 72 1017.5
20260831165204 30 14 1.6 4.8 0.00 0.00 0.00 70 1017.5
20260831164704 30 77 1.6 4.8 0.00 0.00 0.00 69 1017.5
20260831164204 30 147 1.6 4.8 0.00 0.00 0.00 70 1017.4
20260831163704 30 43 3.2 9.7 0.00 0.00 0.00 70 1017.4
20260831163205 30 61 4.8 11.3 0.00 0.00 0.00 71 1017.4
20260831162204 30 48 4.8 9.7 0.00 0.00 0.00 74 1017.5
20260831161704 30 54 6.4 11.3 0.00 0.00 0.00 74 1017.5
20260831160704 30 46 4.8 12.9 0.00 0.00 0.00 75 1017.6
20260831160204 30 106 8.0 11.3 0.00 0.00 0.00 76 1017.6
20260831155704 29 79 8.0 12.9 0.00 0.00 0.00 75 1017.6
20260831155205 29 73 3.2 9.7 0.00 0.00 0.00 76 1017.7
20260831154204 29 28 6.4 16.1 0.00 0.00 0.00 77 1017.7
20260831153704 29 84 4.8 14.5 0.00 0.00 0.00 77 1017.8
20260831153204 29 53 4.8 14.5 0.00 0.00 0.00 76 1017.7
20260831152204 28 62 9.7 16.1 0.00 0.00 0.00 78 1017.6
20260831151704 28 67 11.3 16.1 0.00 0.00 0.00 79 1017.5
20260831151204 29 82 9.7 16.1 0.00 0.00 0.00 78 1017.5
20260831150704 29 57 9.7 16.1 0.00 0.00 0.00 78 1017.5
20260831150205 28 61 9.7 19.3 0.00 0.00 0.00 80 1017.5
20260831145704 28 108 9.7 19.3 0.00 0.00 0.00 79 1017.6
20260831145204 28 85 12.9 20.9 0.00 0.00 0.00 80 1017.6
20260831144204 28 89 11.3 19.3 0.00 0.00 0.00 80 1017.6
20260831143705 28 75 9.7 16.1 0.00 0.00 0.00 80 1017.6
20260831143205 28 71 11.3 16.1 0.00 0.00 0.00 81 1017.7
20260831142204 28 71 9.7 14.5 0.00 0.00 0.00 82 1017.6
20260831141704 27 61 8.0 16.1 0.00 0.00 0.00 82 1017.6
20260831141204 27 70 9.7 14.5 0.00 0.00 0.00 82 1017.6
20260831140704 27 85 11.3 16.1 0.00 0.00 0.00 81 1017.7
20260831135704 27 59 8.0 16.1 0.00 0.00 0.00 82 1017.7
20260831135204 27 78 9.7 19.3 0.00 0.00 0.00 84 1017.5
20260831134704 27 61 9.7 14.5 0.00 0.00 0.00 85 1017.5
20260831133704 26 126 8.0 12.9 0.00 0.00 0.00 87 1017.5
20260831133204 26 113 6.4 11.3 0.00 0.00 0.00 88 1017.5
20260831132704 26 69 8.0 9.7 0.00 0.00 0.00 88 1017.6
20260831132204 26 60 6.4 11.3 0.00 0.00 0.00 88 1017.6
20260831131204 26 59 8.0 12.9 0.00 0.00 0.00 90 1017.6
20260831130704 26 73 8.0 9.7 0.00 0.00 0.00 90 1017.6
20260831130204 26 81 6.4 11.3 0.00 0.00 0.00 92 1017.6
20260831125204 25 58 8.0 9.7 0.00 0.00 0.00 92 1017.7
20260831124704 25 58 4.8 12.9 0.00 0.00 0.00 93 1017.6
20260831124204 25 58 11.3 19.3 0.00 0.00 0.00 94 1017.6
20260831123704 25 66 4.8 12.9 0.00 0.00 0.00 94 1017.6
20260831123204 25 46 6.4 11.3 0.00 0.00 0.00 94 1017.7
20260831122704 25 18 6.4 14.5 0.00 0.00 0.00 94 1017.6
20260831122204 25 62 3.2 4.8 0.00 0.00 0.00 95 1017.5
20260831121704 25 65 3.2 4.8 0.00 0.00 0.00 95 1017.6
20260831121204 25 89 3.2 4.8 0.00 0.00 0.00 95 1017.5
20260831120704 25 56 3.2 4.8 0.00 0.00 0.00 95 1017.4
20260831120204 24 15 1.6 4.8 0.00 0.00 0.00 95 1017.5
20260831115704 24 15 3.2 4.8 0.00 0.00 0.00 95 1017.4
20260831114704 24 65 1.6 3.2 0.00 0.00 0.00 94 1017.2
20260831114204 23 65 0.0 1.6 0.00 0.00 0.00 94 1017.1
20260831113203 23 65 3.2 4.8 0.00 0.00 0.00 94 1017.0
20260831112204 23 128 0.0 0.0 0.00 0.00 0.00 94 1016.9
20260831111704 23 128 1.6 3.2 0.00 0.00 0.00 94 1017.0
20260831110704 23 32 0.0 3.2 0.00 0.00 0.00 93 1016.8
20260831110204 23 32 0.0 0.0 0.00 0.00 0.00 93 1016.9
20260831105704 23 32 0.0 0.0 0.00 0.00 0.00 93 1016.7
20260831105204 23 32 0.0 1.6 0.00 0.00 0.00 93 1016.6
20260831104704 23 32 1.6 3.2 0.00 0.00 0.00 93 1016.6
20260831104204 23 32 1.6 3.2 0.00 0.00 0.00 93 1016.5
20260831103703 23 32 1.6 1.6 0.00 0.00 0.00 93 1016.5
20260831103204 23 32 1.6 3.2 0.00 0.00 0.00 93 1016.4
20260831102204 23 42 0.0 3.2 0.00 0.00 0.00 93 1016.3
20260831101204 23 42 1.6 3.2 0.00 0.00 0.00 93 1016.3
20260831100704 23 42 3.2 4.8 0.00 0.00 0.00 93 1016.3
20260831100204 23 352 0.0 1.6 0.00 0.00 0.00 93 1016.3
20260831095704 23 352 1.6 3.2 0.00 0.00 0.00 93 1016.2
20260831095204 23 352 0.0 0.0 0.00 0.00 0.00 93 1016.2
20260831094705 23 352 0.0 1.6 0.00 0.00 0.00 93 1016.2
20260831094205 23 352 0.0 0.0 0.00 0.00 0.00 93 1016.3
20260831093705 23 352 0.0 0.0 0.00 0.00 0.00 93 1016.4
20260831092705 23 352 0.0 0.0 0.00 0.00 0.00 93 1016.4
20260831092206 23 352 1.6 4.8 0.00 0.00 0.00 93 1016.5
20260831091705 23 354 3.2 4.8 0.00 0.00 0.00 93 1016.2
20260831091205 23 44 0.0 1.6 0.00 0.00 0.00 93 1016.1
20260831090705 23 15 0.0 1.6 0.00 0.00 0.00 93 1016.2
20260831090205 23 15 0.0 0.0 0.00 0.00 0.00 93 1016.3
20260831084705 23 15 0.0 3.2 0.00 0.00 0.00 92 1016.5
20260831084205 23 63 0.0 0.0 0.00 0.00 0.00 92 1016.3
20260831083706 23 63 0.0 0.0 0.00 0.00 0.00 92 1016.2
20260831083206 23 63 0.0 0.0 0.00 0.00 0.00 92 1016.2
20260831082705 23 63 0.0 0.0 0.00 0.00 0.00 92 1016.3
20260831082205 23 63 0.0 0.0 0.00 0.00 0.00 92 1016.4
20260831081705 23 63 0.0 0.0 0.00 0.00 0.00 92 1016.5
20260831081205 23 63 0.0 0.0 0.00 0.00 0.00 92 1016.5
20260831080705 23 63 0.0 0.0 0.00 0.00 0.00 92 1016.4
20260831080205 23 63 0.0 0.0 0.00 0.00 0.00 92 1016.5
20260831075705 23 63 0.0 0.0 0.00 0.00 0.00 92 1016.5
20260831075205 23 63 0.0 0.0 0.00 0.00 0.00 92 1016.6
20260831074705 23 63 0.0 0.0 0.00 0.00 0.00 92 1016.6
20260831074205 23 63 0.0 1.6 0.00 0.00 0.00 92 1016.6
20260831073705 23 63 0.0 1.6 0.00 0.00 0.00 92 1016.5
20260831073205 23 63 1.6 1.6 0.00 0.00 0.00 92 1016.6
20260831072705 23 63 0.0 1.6 0.00 0.00 0.00 92 1016.5
20260831072205 23 306 0.0 0.0 0.00 0.00 0.00 92 1016.5
20260831071705 23 306 0.0 0.0 0.00 0.00 0.00 92 1016.4
20260831071205 24 306 0.0 1.6 0.00 0.00 0.00 92 1016.4
20260831070705 23 306 0.0 0.0 0.00 0.00 0.00 92 1016.5
20260831070205 24 306 0.0 0.0 0.00 0.00 0.00 91 1016.6
20260831064705 24 306 0.0 0.0 0.00 0.00 0.00 92 1016.6
20260831064205 24 306 0.0 0.0 0.00 0.00 0.00 91 1016.6
20260831063205 24 306 0.0 0.0 0.00 0.00 0.00 91 1016.6
20260831061705 24 268 0.0 0.0 0.00 0.00 0.00 91 1016.7
20260831061205 24 262 0.0 1.6 0.00 0.00 0.00 91 1016.7
20260831060706 24 294 0.0 1.6 0.00 0.00 0.00 91 1016.7
20260831060205 24 260 0.0 1.6 0.00 0.00 0.00 91 1016.7
20260831055705 24 296 0.0 1.6 0.00 0.00 0.00 91 1016.7
20260831055205 24 297 0.0 1.6 0.00 0.00 0.00 91 1016.7
20260831054205 24 268 3.2 9.7 0.00 0.00 0.00 90 1016.7
20260831053705 24 242 8.0 11.3 0.00 0.00 0.00 91 1016.7
20260831053205 24 232 9.7 12.9 0.00 0.00 0.00 91 1016.6
20260831052705 24 233 9.7 14.5 0.00 0.00 0.00 90 1016.6
20260831052205 24 231 9.7 12.9 0.00 0.00 0.00 90 1016.7
20260831051205 24 233 9.7 14.5 0.00 0.00 0.00 90 1016.6
20260831050705 25 226 9.7 12.9 0.00 0.00 0.00 90 1016.7
20260831050205 25 235 9.7 11.3 0.00 0.00 0.00 89 1016.7
20260831045705 25 230 9.7 12.9 0.00 0.00 0.00 89 1016.8
20260831045206 25 229 9.7 12.9 0.00 0.00 0.00 89 1016.8
20260831044705 25 227 11.3 12.9 0.00 0.00 0.00 89 1016.9
20260831043705 25 233 11.3 14.5 0.00 0.00 0.00 89 1016.9
20260831041705 25 229 11.3 16.1 0.00 0.00 0.00 89 1017.1
20260831041205 25 234 9.7 14.5 0.00 0.00 0.00 89 1016.9
20260831040705 25 237 11.3 16.1 0.00 0.00 0.00 89 1017.0
20260831035705 25 228 9.7 16.1 0.00 0.00 0.00 88 1017.0
20260831035205 25 226 11.3 16.1 0.00 0.00 0.00 88 1017.0
20260831034705 26 340 14.5 19.3 0.00 0.00 0.00 88 1017.1
20260831034205 26 3 11.3 19.3 0.00 0.00 0.00 88 1017.1
20260831033705 26 201 11.3 19.3 0.00 0.00 0.00 88 1017.1
20260831033205 26 226 11.3 22.5 0.00 0.00 0.00 88 1017.1
20260831032705 26 243 11.3 16.1 0.00 0.00 0.00 87 1017.1
20260831032205 26 227 9.7 16.1 0.00 0.00 0.00 87 1017.2
20260831031705 26 235 14.5 19.3 0.00 0.00 0.00 87 1017.2
20260831031204 26 220 14.5 20.9 0.00 0.00 0.00 86 1017.2
20260831030704 26 211 16.1 20.9 0.00 0.00 0.00 86 1017.2
20260831030205 26 218 16.1 22.5 0.00 0.00 0.00 86 1017.2
20260831025705 26 236 12.9 20.9 0.00 0.00 0.00 86 1017.3
20260831025205 26 213 16.1 22.5 0.00 0.00 0.00 86 1017.1
20260831024705 26 224 12.9 20.9 0.00 0.00 0.00 86 1017.0
20260831024205 26 41 12.9 19.3 0.00 0.00 0.00 86 1017.1
20260831023705 26 301 11.3 14.5 0.00 0.00 0.00 86 1017.2
20260831022705 26 346 9.7 16.1 0.00 0.00 0.00 86 1017.5
20260831022205 27 184 9.7 16.1 0.00 0.00 0.00 86 1017.5
20260831021705 27 215 9.7 19.3 0.00 0.00 0.00 85 1017.5
20260831021205 27 177 11.3 19.3 0.00 0.00 0.00 85 1017.5
20260831020705 27 332 9.7 19.3 0.00 0.00 0.00 85 1017.5
20260831015705 27 226 12.9 19.3 0.00 0.00 0.00 84 1017.5
20260831014705 27 199 14.5 19.3 0.00 0.00 0.00 83 1017.3
20260831014205 27 212 14.5 24.1 0.00 0.00 0.00 82 1017.5
20260831013705 27 186 16.1 24.1 0.00 0.00 0.00 82 1017.3
20260831013205 27 209 16.1 22.5 0.00 0.00 0.00 81 1017.3
20260831012705 27 199 14.5 20.9 0.00 0.00 0.00 81 1017.3
20260831012205 27 191 16.1 25.7 0.00 0.00 0.00 81 1017.4
20260831011705 27 195 11.3 19.3 0.00 0.00 0.00 80 1017.4
20260831011205 27 191 14.5 25.7 0.00 0.00 0.00 79 1017.4
20260831010705 27 184 12.9 19.3 0.00 0.00 0.00 79 1017.3
20260831005705 27 186 12.9 19.3 0.00 0.00 0.00 79 1017.3
20260831005206 27 178 11.3 20.9 0.00 0.00 0.00 79 1017.3
20260831004705 27 211 16.1 22.5 0.00 0.00 0.00 78 1017.3
20260831004205 27 203 12.9 19.3 0.00 0.00 0.00 78 1017.2
20260831003705 27 201 11.3 19.3 0.00 0.00 0.00 78 1017.2
20260831003205 27 202 12.9 19.3 0.00 0.00 0.00 77 1017.2
20260831002704 27 173 9.7 20.9 0.00 0.00 0.00 77 1017.3
20260831002205 27 223 11.3 19.3 0.00 0.00 0.00 77 1017.3
20260831001205 27 200 14.5 19.3 0.00 0.00 0.00 76 1017.1
20260831000704 27 190 11.3 19.3 0.00 0.00 0.00 77 1017.1
20260831000205 27 196 12.9 19.3 0.00 0.00 0.00 77 1017.1
20260830235704 27 193 9.7 14.5 0.00 0.00 0.00 77 1017.0
20260830234705 27 189 9.7 16.1 0.00 0.00 0.00 76 1017.1
20260830234204 27 196 9.7 16.1 0.00 0.00 0.00 76 1017.0
20260830233204 27 190 9.7 22.5 0.00 0.00 0.00 76 1017.1
20260830232705 27 192 14.5 20.9 0.00 0.00 0.00 76 1017.1
20260830232205 28 290 8.0 14.5 0.00 0.00 0.00 76 1017.1
20260830231204 28 199 9.7 16.1 0.00 0.00 0.00 77 1017.2
20260830230705 28 235 11.3 16.1 0.00 0.00 0.00 77 1017.2
20260830230205 28 190 9.7 14.5 0.00 0.00 0.00 76 1017.1
20260830225705 28 194 9.7 12.9 0.00 0.00 0.00 76 1017.1
20260830225204 28 200 9.7 16.1 0.00 0.00 0.00 76 1017.1
20260830224705 28 209 11.3 19.3 0.00 0.00 0.00 76 1017.0
20260830224205 28 198 9.7 16.1 0.00 0.00 0.00 76 1016.9
20260830223705 28 232 8.0 19.3 0.00 0.00 0.00 75 1016.9
20260830223205 28 211 11.3 19.3 0.00 0.00 0.00 75 1017.1
20260830222205 28 205 9.7 19.3 0.00 0.00 0.00 75 1017.1
20260830221704 28 6 12.9 19.3 0.00 0.00 0.00 75 1017.1
20260830221205 28 337 11.3 19.3 0.00 0.00 0.00 73 1017.2
20260830220705 28 224 12.9 19.3 0.00 0.00 0.00 73 1017.2
20260830220204 28 315 14.5 19.3 0.00 0.00 0.00 72 1017.1
20260830215704 28 184 16.1 22.5 0.00 0.00 0.00 72 1017.0
20260830215204 29 325 12.9 16.1 0.00 0.00 0.00 71 1017.1
20260830214705 29 335 12.9 24.1 0.00 0.00 0.00 70 1016.9
20260830214205 29 3 12.9 20.9 0.00 0.00 0.00 71 1016.9
20260830213705 29 179 9.7 16.1 0.00 0.00 0.00 70 1016.9
20260830213205 30 179 12.9 19.3 0.00 0.00 0.00 70 1016.9
20260830212705 30 225 9.7 16.1 0.00 0.00 0.00 68 1016.9
20260830211705 30 172 11.3 22.5 0.00 0.00 0.00 67 1016.8
20260830210705 30 351 16.1 22.5 0.00 0.00 0.00 64 1016.8
20260830210205 31 228 14.5 20.9 0.00 0.00 0.00 67 1016.8
20260830205204 31 219 14.5 19.3 0.00 0.00 0.00 67 1016.9
20260830204705 30 225 16.1 20.9 0.00 0.00 0.00 67 1016.9
20260830204205 30 215 11.3 14.5 0.00 0.00 0.00 69 1017.0
20260830203705 30 209 9.7 19.3 0.00 0.00 0.00 68 1016.9
20260830203205 30 186 14.5 22.5 0.00 0.00 0.00 68 1017.0
20260830202705 30 203 12.9 20.9 0.00 0.00 0.00 68 1017.0
20260830202204 30 189 9.7 25.7 0.00 0.00 0.00 68 1017.1
20260830201704 30 203 11.3 22.5 0.00 0.00 0.00 66 1017.1
20260830201205 30 181 12.9 22.5 0.00 0.00 0.00 68 1017.1
20260830200705 30 188 11.3 22.5 0.00 0.00 0.00 68 1017.2
20260830200205 30 205 12.9 19.3 0.00 0.00 0.00 68 1017.2
20260830195705 30 198 11.3 19.3 0.00 0.00 0.00 68 1017.2
20260830194704 30 195 9.7 19.3 0.00 0.00 0.00 68 1017.5
20260830194205 30 9 14.5 24.1 0.00 0.00 0.00 68 1017.5
20260830193705 30 173 16.1 25.7 0.00 0.00 0.00 69 1017.5
20260830193205 30 307 12.9 20.9 0.00 0.00 0.00 68 1017.5
20260830192705 30 233 11.3 19.3 0.00 0.00 0.00 69 1017.6
20260830191704 30 163 16.1 22.5 0.00 0.00 0.00 69 1017.8
20260830191205 30 183 12.9 24.1 0.00 0.00 0.00 70 1018.0
20260830190705 30 188 14.5 20.9 0.00 0.00 0.00 68 1018.1
20260830190205 30 225 14.5 19.3 0.00 0.00 0.00 68 1018.3
20260830185704 30 221 14.5 20.9 0.00 0.00 0.00 70 1018.3
20260830185205 30 221 9.7 16.1 0.00 0.00 0.00 68 1018.2
20260830184705 30 183 8.0 19.3 0.00 0.00 0.00 73 1018.2
20260830184205 30 191 14.5 20.9 0.00 0.00 0.00 68 1018.5
20260830183705 30 193 11.3 20.9 0.00 0.00 0.00 69 1018.7
20260830183204 30 193 12.9 22.5 0.00 0.00 0.00 68 1018.8
20260830182705 30 196 11.3 19.3 0.00 0.00 0.00 69 1018.8
20260830182204 30 215 14.5 19.3 0.00 0.00 0.00 68 1018.8